Location: Bégole
(43.1574°N, 0.3291°E)
Time: 02:27:33
(UTC+00:00)

deb Delta 89 - Pass Details

Date: 21 February 2024
Orbit: 714 x 2021 km, 97.5° (Epoch: 13 April)

Event Time Altitude Azimuth Distance (km) Brightness Sun altitude
Rises 03:07:41 0° 10° (N) 5,402 ? -40.2°
Reaches altitude 10° 03:10:53 10° 9° (N) 4,453 ? -39.6°
Enters shadow 03:21:46 71° 304° (WNW) 2,085 ? -37.8°
